Weather History for Albany, NY

Change the Weather History Date:

Tuesday, December 4, 2012

  Actual Average Record
Temperature  
Mean Temperature 42 °F 33 °F  
Max Temperature 56 °F 40 °F 63 °F (1982)
Min Temperature 27 °F 26 °F -9 °F (1940)
Degree Days  
Heating Degree Days 23 32  
Month to date heating degree days 110 126  
Since 1 July heating degree days 1398 1530  
Cooling Degree Days 0 0  
Month to date cooling degree days 0 0  
Year to date cooling degree days 814 598  
Moisture  
Dew Point 42 °F    
Average Humidity 89    
Maximum Humidity 100    
Minimum Humidity 77    
Precipitation  
Precipitation T in 0.11 in 1.82 in (1950)
Month to date precipitation 0.26 0.43  
Year to date precipitation 33.20 36.85  
Snow  
Snow 0.00 in 0.30 in 6.00 in (1901)
Month to date snowfall 0.7 1.2  
Since 1 July snowfall 0.8 4.0  
Snow Depth 0.00 in    
Sea Level Pressure  
Sea Level Pressure 30.13 in    
Wind  
Wind Speed 11 mph (South)    
Max Wind Speed 22 mph    
Max Gust Speed 29 mph    
Visibility 7 miles    
Events Fog , Rain    
T = Trace of Precipitation, MM = Missing Value Source: NWS Daily Summary

Daily Weather History Graph

Daily Weather History Graph

Search for Another Location

Airport:

Trip Planner

Search our weather history database for the weather conditions in past years. The results will help you decide how hot, cold, wet, or windy it might be!

Date:

Astronomy

Dec. 04, 2012 Rise Set
Actual Time 7:09 AM EST 4:21 PM EST
Civil Twilight 6:37 AM EST 4:53 PM EST
Nautical Twilight 6:02 AM EST 5:28 PM EST
Astronomical Twilight 5:28 AM EST 6:02 PM EST
Moon 10:11 PM EST (12/4) 10:57 AM EST (12/4)
Length of Visible Light 10h 15m
Length of Day
9h 12m
Waning Gibbous, 69% of the Moon is Illuminated
Dec 4
Waning Gibbous
Dec 6
Last Quarter
Dec 13
New
Dec 20
First Quarter
Dec 28
Full

Hourly Weather History & Observations

Time (EST) Temp. Windchill Dew Point Humidity Pressure Visibility Wind Dir Wind Speed Gust Speed Precip Events Conditions
12:35 AM 28.4 °F - 28.4 °F 100% 30.26 in 10.0 mi Calm Calm - N/A Fog Patches of Fog
12:51 AM 30.0 °F 25.2 °F 28.9 °F 96% 30.26 in 6.0 mi East 4.6 mph - N/A Fog Patches of Fog
1:05 AM 28.4 °F - 26.6 °F 93% 30.25 in 3.0 mi Calm Calm - N/A Fog Patches of Fog
1:21 AM 30.2 °F - 28.4 °F 93% 30.25 in 3.0 mi Calm Calm - N/A Fog Patches of Fog
1:51 AM 28.9 °F - 28.0 °F 96% 30.26 in 3.0 mi Calm Calm - N/A Fog Patches of Fog
2:51 AM 30.0 °F - 28.9 °F 96% 30.26 in 2.0 mi Calm Calm - N/A   Overcast
3:10 AM 30.2 °F - 30.2 °F 100% 30.25 in 3.0 mi Calm Calm - N/A Fog Patches of Fog
3:51 AM 32.0 °F - 30.9 °F 96% 30.25 in 6.0 mi Calm Calm - N/A   Overcast
4:51 AM 37.0 °F - 36.0 °F 96% 30.24 in 6.0 mi Calm Calm - 0.00 in Rain Light Rain
5:51 AM 39.0 °F 34.8 °F 37.0 °F 93% 30.23 in 9.0 mi SSE 5.8 mph - 0.00 in   Mostly Cloudy
6:51 AM 39.9 °F 34.5 °F 37.0 °F 89% 30.23 in 9.0 mi South 8.1 mph - N/A   Overcast
7:51 AM 43.0 °F 38.8 °F 39.0 °F 86% 30.21 in 9.0 mi South 6.9 mph - N/A   Mostly Cloudy
8:51 AM 46.0 °F 41.4 °F 41.0 °F 83% 30.22 in 9.0 mi South 9.2 mph - N/A   Overcast
9:34 AM 48.2 °F - 42.8 °F 82% 30.20 in 8.0 mi South 10.4 mph - N/A   Overcast
9:51 AM 48.9 °F - 43.0 °F 80% 30.21 in 8.0 mi South 8.1 mph - N/A   Overcast
10:51 AM 51.1 °F - 45.0 °F 80% 30.19 in 7.0 mi South 12.7 mph 20.7 mph N/A   Overcast
11:51 AM 52.0 °F - 46.0 °F 80% 30.16 in 7.0 mi South 15.0 mph 24.2 mph N/A   Overcast
12:51 PM 54.0 °F - 48.0 °F 80% 30.12 in 8.0 mi South 11.5 mph 20.7 mph N/A   Overcast
1:51 PM 55.0 °F - 48.9 °F 80% 30.09 in 9.0 mi South 18.4 mph 25.3 mph N/A   Mostly Cloudy
2:51 PM 54.0 °F - 48.9 °F 83% 30.08 in 8.0 mi South 15.0 mph 24.2 mph N/A   Overcast
3:51 PM 54.0 °F - 50.0 °F 86% 30.08 in 8.0 mi South 16.1 mph 26.5 mph N/A   Overcast
4:31 PM 53.6 °F - 50.0 °F 88% 30.06 in 8.0 mi South 13.8 mph 24.2 mph N/A   Overcast
4:51 PM 54.0 °F - 50.0 °F 86% 30.06 in 8.0 mi South 13.8 mph 21.9 mph N/A   Overcast
5:51 PM 55.0 °F - 50.0 °F 83% 30.02 in 7.0 mi South 18.4 mph 27.6 mph N/A   Overcast
6:51 PM 55.0 °F - 51.1 °F 86% 30.00 in 6.0 mi South 16.1 mph 25.3 mph N/A   Mostly Cloudy
7:25 PM 55.4 °F - 51.8 °F 88% 29.98 in 5.0 mi South 19.6 mph 27.6 mph N/A   Scattered Clouds
7:51 PM 55.0 °F - 51.1 °F 86% 29.97 in 6.0 mi South 18.4 mph 28.8 mph N/A   Mostly Cloudy
8:51 PM 55.0 °F - 51.1 °F 86% 29.95 in 6.0 mi South 11.5 mph - 0.01 in   Overcast
9:06 PM 55.4 °F - 51.8 °F 88% 29.94 in 6.0 mi South 11.5 mph - N/A   Overcast
9:51 PM 55.0 °F - 51.1 °F 86% 29.92 in 6.0 mi South 16.1 mph 26.5 mph N/A   Overcast
10:51 PM 55.4 °F - 51.8 °F 88% 29.88 in 6.0 mi South 13.8 mph 24.2 mph N/A   Mostly Cloudy
11:51 PM 55.0 °F - 51.1 °F 86% 29.86 in 7.0 mi South 15.0 mph 26.5 mph N/A   Overcast